EW9748 Weather Reports


time (UTC)temp
C
wind
direction
speed
KPH
gust
KPH
rain 1hr
cm
rain 24hr
cm
rain mn
cm
humidity
%
barometer
mb
20260507094538 9 5 0.0 0.0 0.00 0.00 0.00 84 1016.7
20260507093030 9 5 0.0 0.0 0.00 0.00 0.00 83 1016.4
20260507091530 10 5 0.0 0.0 0.00 0.00 0.00 83 1016.3
20260507090027 10 5 0.0 0.0 0.00 0.00 0.00 83 1016.0
20260507084526 10 5 0.0 0.0 0.00 0.00 0.00 83 1015.8
20260507083024 10 5 0.0 0.0 0.00 0.00 0.00 82 1015.7
20260507081535 10 5 0.0 0.0 0.00 0.00 0.00 82 1015.7
20260507080021 10 5 0.0 0.0 0.00 0.00 0.00 83 1015.5
20260507074536 10 5 0.0 0.0 0.00 0.00 0.00 83 1015.5
20260507073019 10 5 0.0 0.0 0.00 0.00 0.00 83 1015.4
20260507071518 10 5 0.0 0.0 0.00 0.00 0.00 82 1015.4
20260507070020 10 5 0.0 0.0 0.00 0.00 0.00 82 1015.2
20260507064516 10 5 0.0 0.0 0.00 0.00 0.00 82 1015.2
20260507063022 10 5 0.0 0.0 0.00 0.00 0.00 81 1015.3
20260507061512 11 5 0.0 0.0 0.00 0.00 0.00 80 1015.1
20260507060009 11 5 0.0 0.0 0.00 0.00 0.00 80 1014.7
20260507054512 11 5 0.0 0.0 0.00 0.00 0.00 79 1014.4
20260507053005 11 5 0.0 0.0 0.00 0.00 0.00 79 1014.2
20260507051503 11 5 0.0 0.0 0.00 0.00 0.00 78 1014.1
20260507050100 11 5 0.0 0.0 0.00 0.00 0.00 77 1013.9
20260507044602 12 5 0.0 0.0 0.00 0.00 0.00 76 1013.5
20260507043056 12 5 0.0 0.0 0.00 0.00 0.00 75 1013.3
20260507041601 12 5 0.0 0.0 0.00 0.00 0.00 74 1013.2
20260507040054 12 5 0.0 0.0 0.00 0.00 0.00 74 1013.2
20260507034559 12 5 0.0 0.0 0.00 0.00 0.00 75 1012.9
20260507033059 12 5 0.0 0.0 0.00 0.00 0.00 74 1012.9
20260507031603 13 5 0.0 0.0 0.00 0.00 0.00 73 1012.6
20260507030054 13 5 0.0 0.0 0.00 0.00 0.00 72 1012.5
20260507024548 13 5 0.0 0.0 0.00 0.00 0.00 71 1012.3
20260507023051 13 5 0.0 0.0 0.00 0.00 0.00 71 1011.9
20260507021544 13 5 0.0 0.0 0.00 0.00 0.00 70 1011.9
20260507020047 14 5 0.0 0.0 0.00 0.00 0.00 69 1011.8
20260507014549 15 5 0.0 0.0 0.00 0.00 0.00 67 1011.5
20260507013044 15 5 0.0 0.0 0.00 0.00 0.00 65 1011.3
20260507011541 16 5 0.0 3.2 0.00 0.00 0.00 63 1011.1
20260507010042 16 5 0.0 0.0 0.00 0.00 0.00 61 1010.8
20260507004537 17 5 0.0 4.8 0.00 0.00 0.00 59 1010.9
20260507003038 18 5 0.0 1.6 0.00 0.00 0.00 55 1010.7
20260507001540 18 5 0.0 1.6 0.00 0.00 0.00 54 1010.5
20260507000040 18 5 0.0 1.6 0.00 0.00 0.00 54 1010.4
20260506234535 18 5 0.0 1.6 0.00 0.00 0.00 56 1010.3
20260506233039 18 5 0.0 0.0 0.00 0.00 0.00 53 1010.3
20260506231534 18 5 0.0 1.6 0.00 0.00 0.00 53 1010.3
20260506230034 18 5 0.0 0.0 0.00 0.00 0.00 52 1010.1
20260506224534 18 5 0.0 3.2 0.00 0.00 0.00 53 1009.8
20260506223035 19 5 0.0 1.6 0.00 0.00 0.00 52 1009.7
20260506221532 19 5 0.0 3.2 0.00 0.00 0.00 52 1009.5
20260506220033 20 5 0.0 1.6 0.00 0.00 0.00 51 1009.4
20260506214531 20 5 0.0 3.2 0.00 0.00 0.00 49 1009.3
20260506213032 21 5 0.0 0.0 0.00 0.00 0.00 47 1009.3
20260506211533 21 5 0.0 0.0 0.00 0.00 0.00 46 1009.2
20260506210031 21 5 0.0 0.0 0.00 0.00 0.00 47 1009.4
20260506204526 21 5 0.0 0.0 0.00 0.00 0.00 49 1009.5
20260506203024 21 5 0.0 0.0 0.00 0.00 0.00 48 1009.5
20260506201522 20 5 0.0 0.0 0.00 0.00 0.00 50 1009.7
20260506200020 20 5 0.0 0.0 0.00 0.00 0.00 51 1009.9
20260506194519 20 5 0.0 0.0 0.00 0.00 0.00 52 1010.0
20260506193018 20 5 0.0 0.0 0.00 0.00 0.00 53 1010.1
20260506191514 18 5 0.0 0.0 0.00 0.00 0.00 55 1010.2
20260506190011 17 5 0.0 0.0 0.00 0.00 0.00 59 1010.5
20260506184508 17 5 0.0 1.6 0.00 0.00 0.00 60 1010.7
20260506183005 16 5 0.0 1.6 0.00 0.00 0.00 61 1010.9
20260506181503 16 5 0.0 1.6 0.00 0.00 0.00 63 1011.0
20260506180002 16 5 0.0 3.2 0.00 0.00 0.00 65 1011.0
20260506174602 15 5 0.0 3.2 0.00 0.00 0.00 66 1011.1
20260506173106 15 5 0.0 9.7 0.00 0.00 0.00 67 1011.1
20260506171603 15 5 0.0 3.2 0.00 0.00 0.00 68 1011.0
20260506170107 14 5 0.0 4.8 0.00 0.00 0.00 71 1010.9
20260506164606 13 5 0.0 4.8 0.00 0.00 0.00 73 1011.0
20260506163112 12 5 0.0 6.4 0.00 0.00 0.00 77 1011.0
20260506161601 11 5 0.0 3.2 0.00 0.00 0.00 79 1010.7
20260506160053 10 360 0.0 16.1 0.00 0.00 0.00 81 1010.6
20260506154608 10 5 0.0 8.0 0.00 0.00 0.00 81 1010.5
20260506153058 10 5 0.0 9.7 0.00 0.00 0.00 81 1010.4
20260506151548 10 5 0.0 8.0 0.00 0.00 0.00 82 1010.0
20260506150047 10 5 0.0 12.9 0.00 0.00 0.00 82 1010.0
20260506144546 10 5 0.0 12.9 0.00 0.00 0.00 83 1010.1
20260506143100 10 5 0.0 6.4 0.00 0.00 0.00 82 1010.3
20260506141544 10 5 0.0 4.8 0.00 0.00 0.00 83 1010.3
20260506140044 10 5 0.0 8.0 0.00 0.00 0.00 82 1009.9
20260506134542 10 5 0.0 1.6 0.00 0.00 0.00 82 1010.1
20260506133041 10 5 0.0 9.7 0.00 0.00 0.00 82 1009.7
20260506131538 10 5 0.0 6.4 0.00 0.00 0.00 82 1009.6
20260506130037 10 5 0.0 8.0 0.00 0.00 0.00 82 1009.3
20260506124535 10 5 0.0 1.6 0.00 0.00 0.00 82 1009.0
20260506123036 10 5 0.0 1.6 0.00 0.00 0.00 83 1008.9
20260506121538 10 5 0.0 1.6 0.00 0.00 0.00 83 1008.8
20260506120029 10 5 0.0 6.4 0.00 0.00 0.00 83 1008.0
20260506114533 10 5 0.0 3.2 0.00 0.00 0.00 83 1007.4
20260506113025 10 5 0.0 9.7 0.00 0.00 0.00 83 1007.1
20260506111524 10 5 0.0 4.8 0.00 0.00 0.00 83 1007.2
20260506110023 10 5 0.0 1.6 0.00 0.00 0.00 83 1007.0
20260506104520 10 5 0.0 0.0 0.00 0.00 0.00 84 1006.9
20260506103019 10 5 0.0 3.2 0.00 0.00 0.00 84 1006.7
20260506101518 10 5 0.0 3.2 0.00 0.00 0.00 84 1006.8
20260506100016 10 5 0.0 1.6 0.00 0.00 0.00 84 1006.6